Regional Weather Roundup
Issued by NWS Lake Charles, LA

Home | Current Version | Previous Version | Text Only | Print | Product List | Glossary On
Versions: 1 2 3 4 5 6 7 8 9 10 11 12 13 14 15 16 17 18 19 20 21 22 23 24 25 26 27 28 29 30 31 32 33 34 35 36 37 38 39 40 41 42 43 44 45 46 47 48 49 50
000
ASUS44 KLCH 021910
RWRLCH
RWRLCH
REGIONAL WEATHER ROUNDUP
NATIONAL WEATHER SERVICE LAKE CHARLES LA
200 PM CDT TUE SEP 02 2014

Note: "fair" indicates few or no clouds below 12,000 feet with no
significant weather and/or obstructions to visibility.


ACROSS SOUTHEAST TEXAS

CITY           SKY/WX    TMP DP  RH WIND       PRES   REMARKS
BEAUMONT       MOSUNNY   90  75  61 S12G21    30.00F HX 100
BEAUMONT CITY  MOCLDY    87  78  74 S9        30.00F
ORANGE         CLOUDY    89  74  62 SE12G17   30.02F
JASPER         LGT RAIN  75  73  94 CALM      30.05S
$$

ACROSS CENTRAL LOUISIANA

CITY           SKY/WX    TMP DP  RH WIND       PRES   REMARKS
LEESVILLE      CLOUDY    86  73  65 SW8       30.03R THUNDER
FULLERTON      MOCLDY    90  73  57 VRB7      29.99S THUNDER
ALEXANDRIA INT MOSUNNY   92  74  55 S7        29.99F HX 101
ESLER FIELD    MOSUNNY   93  75  55 SW8       30.00F HX 104
DERIDDER         N/A     85  77  75 CALM      30.04S HAZE
OAKDALE        CLOUDY    87  75  67 SW6       30.01F
OPELOUSAS      LGT RAIN  81  77  88 E6        30.02F
$$

ACROSS SOUTHWEST AND SOUTH CENTRAL LOUISIANA

CITY           SKY/WX    TMP DP  RH WIND       PRES   REMARKS
SULPHUR        LGT RAIN  84  76  78 CALM      30.02F
LAKE CHARLES   PTSUNNY   87  74  64 S8G17     30.00F
CHENNAULT INT  NOT AVBL
CAMERON PHI    CLEAR     86  79  79 SE12      30.02F
DEQUINCY         N/A     88  75  65 S9        30.01S
JENNINGS       CLOUDY    88  76  66 S9        30.01F
LAFAYETTE      MOSUNNY   91  75  59 S10       30.01F HX 101
NEW IBERIA     PTSUNNY   89  76  65 S14       30.03F HX 100
ABBEVILLE        N/A     89  75  62 SE12      30.02F
PATTERSON      NOT AVBL
SALT POINT       N/A     91  78  65 VRB6      30.03F HX 106
$$

SELECTED SITES ACROSS THE REGION

CITY           SKY/WX    TMP DP  RH WIND       PRES   REMARKS
HOUSTON BUSH   PTSUNNY   91  73  55 S13       29.98S HX 100
HOUSTON HOBBY  MOSUNNY   91  74  57 SE10G22   29.98F HX 100
GALVESTON      SUNNY     89  78  70 SE16      29.99F HX 103
COLLEGE STAT   PTSUNNY   93  72  50 SE10G17   29.96F HX 101
CONROE         PTSUNNY   90  72  55 S8        29.99S
HUNTSVILLE     PTSUNNY   82  76  81 CALM      29.99F THUNDER
LUFKIN         CLOUDY    79  75  87 N3        30.00F
SHREVEPORT     PTSUNNY   78  74  87 SE6       30.01R
MONROE         LGT RAIN  77  74  90 CALM      30.03F
NATCHEZ MS     PTSUNNY   84  73  70 W12       30.03F THUNDER
BATON ROUGE    PTSUNNY   90  72  55 S8        30.02F
N.O. INTL ARPT PTSUNNY   92  71  50 S8        30.03F
SLIDELL        PTSUNNY   90  74  59 VRB7      30.03F
$$

MARINE REPORTS

STATION/POSITION TIME  TEMP    WIND        PRES    VSBY  WAVE
                       AIR SEA DIR/SP/G                  HT/PER
                 (UTC) (F)     (DEG/KT/KT) (MB)    (MI)  (FT/S)
BUOY 30 S HIGH I 1900   85 86  130/ 14/ 16 1015.2F         4/ 8
SEA RIM ST PARK  1900   86     150/  9/ 12 1016.7S
PORT ARTHUR      1900      85  160/  7/ 12 1016.1F
SABINE PASS N    1900   84 86  140/ 13/ 15 1016.3F
TEXAS POINT      1900   84 85  140/ 12/ 15 1016.4R
CALCASIEU PASS   1900   85 85  150/ 10/ 13 1017.6S
LK CHARLES BEACH 1900   89 83              1016.8F
MARSH ISLAND     NOT AVBL
FRESH WATER LOCK 1900   86 85  140/ 10/ 14 1016.8F
AMERADA PASS     1900   87 87  160/  5/  9 1017.0F
$$


USA.gov is the U.S. government's official web portal to all federal, state and local government web resources and services.